DW2149 Weather Reports


Display with metric or nautical units.
time (UTC)temp
F
wind
direction
speed
MPH
gust
MPH
rain 1hr
in
rain 24hr
in
rain mn
in
humidity
%
barometer
mb
20260509184139 76 279 1.0 6.0 0.00 0.00 0.00 45 1012.4
20260509183936 76 279 1.0 6.0 0.00 0.00 0.00 45 1012.4
20260509183729 76 279 1.0 7.0 0.00 0.00 0.00 45 1012.4
20260509183524 76 261 0.0 7.0 0.00 0.00 0.00 45 1012.4
20260509183321 76 261 1.0 7.0 0.00 0.00 0.00 44 1012.4
20260509183118 76 295 1.0 7.0 0.00 0.00 0.00 44 1012.4
20260509182725 76 285 2.0 7.0 0.00 0.00 0.00 46 1012.4
20260509181958 74 213 1.0 7.0 0.00 0.00 0.00 48 1012.5
20260509181756 74 153 0.0 7.0 0.00 0.00 0.00 48 1012.6
20260509181549 74 207 0.0 5.0 0.00 0.00 0.00 47 1012.5
20260509181158 74 207 1.0 5.0 0.00 0.00 0.00 48 1012.6
20260509180948 74 212 0.0 6.0 0.00 0.00 0.00 50 1012.6
20260509180746 73 161 1.0 6.0 0.00 0.00 0.00 50 1012.6
20260509180538 73 160 1.0 6.0 0.00 0.00 0.00 48 1012.6
20260509180330 73 258 1.0 6.0 0.00 0.00 0.00 50 1012.6
20260509180121 72 276 1.0 6.0 0.00 0.00 0.00 50 1012.6
20260509175909 72 276 1.0 6.0 0.00 0.00 0.00 50 1012.7
20260509175657 72 216 1.0 6.0 0.00 0.00 0.00 53 1012.7
20260509175448 71 293 0.0 6.0 0.00 0.00 0.00 52 1012.7
20260509175241 71 293 0.0 6.0 0.00 0.00 0.00 52 1012.7
20260509175032 71 229 0.0 4.0 0.00 0.00 0.00 54 1012.7
20260509174821 70 225 1.0 3.0 0.00 0.00 0.00 54 1012.7
20260509174430 70 222 1.0 4.0 0.00 0.00 0.00 54 1012.7
20260509174223 70 220 1.0 4.0 0.00 0.00 0.00 55 1012.7
20260509174017 69 273 1.0 3.0 0.00 0.00 0.00 55 1012.7
20260509173813 69 271 1.0 2.0 0.00 0.00 0.00 54 1012.7
20260509173606 69 271 1.0 4.0 0.00 0.00 0.00 56 1012.7
20260509173354 69 279 0.0 4.0 0.00 0.00 0.00 55 1012.6
20260509173151 69 271 1.0 4.0 0.00 0.00 0.00 55 1012.6
20260509172943 69 221 1.0 4.0 0.00 0.00 0.00 58 1012.6
20260509172734 68 189 1.0 4.0 0.00 0.00 0.00 58 1012.6
20260509172524 68 189 1.0 4.0 0.00 0.00 0.00 58 1012.6
20260509172323 68 189 1.0 4.0 0.00 0.00 0.00 58 1012.6
20260509172118 67 192 0.0 4.0 0.00 0.00 0.00 59 1012.6
20260509171915 67 173 0.0 3.0 0.00 0.00 0.00 60 1012.6
20260509171710 67 172 0.0 2.0 0.00 0.00 0.00 62 1012.6
20260509171506 66 161 0.0 2.0 0.00 0.00 0.00 64 1012.7
20260509171118 66 161 0.0 4.0 0.00 0.00 0.00 64 1012.6
20260509170914 65 160 0.0 4.0 0.00 0.00 0.00 65 1012.6
20260509170525 64 196 0.0 4.0 0.00 0.00 0.00 69 1012.6
20260509170313 64 196 0.0 4.0 0.00 0.00 0.00 71 1012.7
20260509170105 63 197 0.0 4.0 0.00 0.00 0.00 75 1012.6
20260509165853 62 196 0.0 4.0 0.00 0.00 0.00 77 1012.6
20260509165642 62 196 0.0 4.0 0.00 0.00 0.00 81 1012.6
20260509165434 62 250 0.0 4.0 0.00 0.00 0.00 83 1012.6
20260509165226 61 292 0.0 4.0 0.00 0.00 0.00 86 1012.6
20260509165015 61 292 0.0 4.0 0.00 0.00 0.00 86 1012.6
20260509164810 61 251 0.0 1.0 0.00 0.00 0.00 88 1012.6
20260509164606 61 252 0.0 0.0 0.00 0.00 0.00 88 1012.6
20260509164403 60 252 0.0 3.0 0.00 0.00 0.00 89 1012.6
20260509164151 60 252 0.0 3.0 0.00 0.00 0.00 89 1012.6
20260509163940 60 273 0.0 3.0 0.00 0.00 0.00 89 1012.7
20260509163734 60 275 0.0 0.0 0.00 0.00 0.00 90 1012.7
20260509163530 60 275 0.0 0.0 0.00 0.00 0.00 90 1012.7
20260509163143 59 275 0.0 0.0 0.00 0.00 0.00 90 1012.8
20260509162937 59 275 0.0 0.0 0.00 0.00 0.00 91 1012.7
20260509162732 59 275 0.0 0.0 0.00 0.00 0.00 91 1012.8
20260509162528 59 275 0.0 0.0 0.00 0.00 0.00 91 1012.7
20260509162326 59 275 0.0 0.0 0.00 0.00 0.00 91 1012.7
20260509162121 58 275 0.0 0.0 0.00 0.00 0.00 91 1012.7
20260509161915 58 275 0.0 0.0 0.00 0.00 0.00 91 1012.8
20260509161705 58 275 0.0 0.0 0.00 0.00 0.00 91 1012.8
20260509161500 58 275 0.0 0.0 0.00 0.00 0.00 91 1012.8
20260509161107 57 275 0.0 0.0 0.00 0.00 0.00 91 1012.7
20260509160858 57 275 0.0 0.0 0.00 0.00 0.00 91 1012.7
20260509160651 57 275 0.0 0.0 0.00 0.00 0.00 91 1012.7
20260509160441 57 275 0.0 0.0 0.00 0.00 0.00 91 1012.7
20260509160237 56 275 0.0 0.0 0.00 0.00 0.00 91 1012.7
20260509160030 56 275 0.0 0.0 0.00 0.00 0.00 91 1012.7
20260509155819 56 275 0.0 0.0 0.00 0.00 0.00 91 1012.7
20260509155424 55 275 0.0 0.0 0.00 0.00 0.00 90 1012.7
20260509155217 55 275 0.0 0.0 0.00 0.00 0.00 90 1012.8
20260509155008 55 275 0.0 0.0 0.00 0.00 0.00 90 1012.7
20260509154759 55 275 0.0 0.0 0.00 0.00 0.00 90 1012.8
20260509154552 54 275 0.0 0.0 0.00 0.00 0.00 90 1012.8
20260509154340 54 275 0.0 0.0 0.00 0.00 0.00 90 1012.9
20260509154129 54 275 0.0 0.0 0.00 0.00 0.00 90 1012.9
20260509153925 54 275 0.0 0.0 0.00 0.00 0.00 90 1012.9
20260509153713 54 275 0.0 0.0 0.00 0.00 0.00 90 1013.0
20260509153510 53 275 0.0 0.0 0.00 0.00 0.00 89 1012.9
20260509153118 53 275 0.0 0.0 0.00 0.00 0.00 89 1013.0
20260509152912 53 275 0.0 0.0 0.00 0.00 0.00 89 1013.0
20260509152525 52 275 0.0 0.0 0.00 0.00 0.00 89 1012.9
20260509152128 52 275 0.0 0.0 0.00 0.00 0.00 89 1012.9
20260509151919 52 275 0.0 0.0 0.00 0.00 0.00 88 1012.8
20260509151715 52 275 0.0 0.0 0.00 0.00 0.00 88 1012.8
20260509151503 51 275 0.0 0.0 0.00 0.00 0.00 88 1012.9
20260509151254 51 275 0.0 0.0 0.00 0.00 0.00 88 1012.9
20260509151045 51 275 0.0 0.0 0.00 0.00 0.00 88 1012.8
20260509150844 51 275 0.0 0.0 0.00 0.00 0.00 88 1012.8
20260509150633 51 275 0.0 0.0 0.00 0.00 0.00 88 1012.9
20260509150425 51 275 0.0 0.0 0.00 0.00 0.00 88 1013.0
20260509150218 51 275 0.0 0.0 0.00 0.00 0.00 88 1013.0
20260509150007 51 275 0.0 0.0 0.00 0.00 0.00 87 1013.0
20260509145616 51 275 0.0 0.0 0.00 0.00 0.00 87 1013.0
20260509145413 51 275 0.0 0.0 0.00 0.00 0.00 87 1013.0
20260509145207 51 275 0.0 0.0 0.00 0.00 0.00 87 1012.9
20260509144419 50 275 0.0 0.0 0.00 0.00 0.00 87 1012.8
20260509144216 50 275 0.0 0.0 0.00 0.00 0.00 87 1012.8
20260509144014 50 275 0.0 0.0 0.00 0.00 0.00 87 1012.9
20260509143803 50 275 0.0 0.0 0.00 0.00 0.00 87 1012.8
20260509143601 50 275 0.0 0.0 0.00 0.00 0.00 87 1012.9
20260509143210 50 275 0.0 0.0 0.00 0.00 0.00 87 1012.9
20260509143007 50 275 0.0 0.0 0.00 0.00 0.00 87 1012.9
20260509142801 50 275 0.0 0.0 0.00 0.00 0.00 87 1012.9
20260509142550 50 275 0.0 0.0 0.00 0.00 0.00 87 1012.9
20260509142347 50 275 0.0 0.0 0.00 0.00 0.00 87 1013.0
20260509142139 50 275 0.0 0.0 0.00 0.00 0.00 87 1013.0
20260509141935 50 275 0.0 0.0 0.00 0.00 0.00 87 1013.0
20260509141725 50 275 0.0 0.0 0.00 0.00 0.00 87 1013.1
20260509141521 50 275 0.0 0.0 0.00 0.00 0.00 87 1013.0
20260509141312 50 275 0.0 0.0 0.00 0.00 0.00 87 1013.0
20260509141100 50 275 0.0 0.0 0.00 0.00 0.00 87 1013.1
20260509140712 50 275 0.0 0.0 0.00 0.00 0.00 86 1013.1
20260509140459 50 275 0.0 0.0 0.00 0.00 0.00 86 1013.1
20260509140256 50 275 0.0 0.0 0.00 0.00 0.00 86 1013.1
20260509140051 50 275 0.0 0.0 0.00 0.00 0.00 86 1013.1
20260509135848 50 275 0.0 0.0 0.00 0.00 0.00 86 1013.1
20260509135309 50 275 0.0 0.0 0.00 0.00 0.00 86 1013.1
20260509135100 50 275 0.0 0.0 0.00 0.00 0.00 86 1013.1
20260509134849 49 275 0.0 0.0 0.00 0.00 0.00 86 1013.0
20260509134643 49 275 0.0 0.0 0.00 0.00 0.00 86 1013.0
20260509134439 49 275 0.0 0.0 0.00 0.00 0.00 86 1013.0
20260509134231 49 275 0.0 0.0 0.00 0.00 0.00 86 1013.0
20260509134022 50 275 0.0 0.0 0.00 0.00 0.00 86 1013.0
20260509133816 49 275 0.0 0.0 0.00 0.00 0.00 86 1013.0
20260509133607 49 275 0.0 0.0 0.00 0.00 0.00 86 1012.9
20260509133211 49 275 0.0 0.0 0.00 0.00 0.00 86 1012.9
20260509133006 50 275 0.0 0.0 0.00 0.00 0.00 86 1012.8
20260509132758 49 275 0.0 0.0 0.00 0.00 0.00 86 1012.8
20260509132546 50 275 0.0 0.0 0.00 0.00 0.00 86 1012.8
20260509132344 50 275 0.0 0.0 0.00 0.00 0.00 86 1012.8
20260509131737 50 275 0.0 0.0 0.00 0.00 0.00 86 1012.8
20260509131526 50 275 0.0 0.0 0.00 0.00 0.00 86 1012.8
20260509131317 50 275 0.0 0.0 0.00 0.00 0.00 85 1012.8
20260509131111 50 275 0.0 0.0 0.00 0.00 0.00 85 1012.7
20260509130721 50 275 0.0 0.0 0.00 0.00 0.00 85 1012.6
20260509130511 50 275 0.0 0.0 0.00 0.00 0.00 85 1012.6
20260509130307 50 275 0.0 0.0 0.00 0.00 0.00 85 1012.5
20260509125911 50 275 0.0 0.0 0.00 0.00 0.00 85 1012.5
20260509125706 50 275 0.0 0.0 0.00 0.00 0.00 85 1012.5
20260509125315 50 275 0.0 0.0 0.00 0.00 0.00 85 1012.5
20260509124743 50 275 0.0 0.0 0.00 0.00 0.00 85 1012.6
20260509124532 50 275 0.0 0.0 0.00 0.00 0.00 85 1012.5
20260509124329 50 275 0.0 0.0 0.00 0.00 0.00 85 1012.6
20260509124123 50 275 0.0 0.0 0.00 0.00 0.00 85 1012.6
20260509123915 50 275 0.0 0.0 0.00 0.00 0.00 85 1012.6
20260509123526 50 275 0.0 0.0 0.00 0.00 0.00 85 1012.6
20260509123319 50 275 0.0 0.0 0.00 0.00 0.00 85 1012.6
20260509123109 50 275 0.0 0.0 0.00 0.00 0.00 85 1012.5
20260509122713 50 275 0.0 0.0 0.00 0.00 0.00 85 1012.5
20260509122502 50 275 0.0 0.0 0.00 0.00 0.00 85 1012.5
20260509122256 50 275 0.0 0.0 0.00 0.00 0.00 85 1012.5
20260509121903 50 275 0.0 0.0 0.00 0.00 0.00 85 1012.5
20260509121701 50 275 0.0 0.0 0.00 0.00 0.00 85 1012.5
20260509121454 50 275 0.0 0.0 0.00 0.00 0.00 85 1012.5
20260509121241 50 275 0.0 0.0 0.00 0.00 0.00 85 1012.5
20260509121031 50 275 0.0 0.0 0.00 0.00 0.00 85 1012.5
20260509120819 50 275 0.0 0.0 0.00 0.00 0.00 85 1012.5
20260509120611 50 275 0.0 0.0 0.00 0.00 0.00 85 1012.6
20260509120401 50 275 0.0 0.0 0.00 0.00 0.00 85 1012.5
20260509120159 50 275 0.0 0.0 0.00 0.00 0.00 85 1012.5
20260509115951 50 275 0.0 0.0 0.00 0.00 0.00 85 1012.5
20260509115747 50 275 0.0 0.0 0.00 0.00 0.00 85 1012.5
20260509115545 50 275 0.0 0.0 0.00 0.00 0.00 85 1012.5
20260509115339 50 275 0.0 0.0 0.00 0.00 0.00 85 1012.5
20260509115137 50 275 0.0 0.0 0.00 0.00 0.00 85 1012.6
20260509114932 50 275 0.0 0.0 0.00 0.00 0.00 85 1012.6
20260509114723 50 275 0.0 0.0 0.00 0.00 0.00 85 1012.6
20260509114521 50 275 0.0 0.0 0.00 0.00 0.00 84 1012.6
20260509114310 50 275 0.0 0.0 0.00 0.00 0.00 84 1012.5
20260509114105 50 275 0.0 0.0 0.00 0.00 0.00 84 1012.6
20260509113904 50 275 0.0 0.0 0.00 0.00 0.00 84 1012.6
20260509113658 50 275 0.0 0.0 0.00 0.00 0.00 84 1012.6
20260509113456 50 275 0.0 0.0 0.00 0.00 0.00 84 1012.6
20260509113247 50 275 0.0 0.0 0.00 0.00 0.00 85 1012.6
20260509113036 50 275 0.0 0.0 0.00 0.00 0.00 85 1012.6
20260509112824 50 275 0.0 0.0 0.00 0.00 0.00 85 1012.7
20260509112436 50 275 0.0 0.0 0.00 0.00 0.00 84 1012.7
20260509112233 50 275 0.0 0.0 0.00 0.00 0.00 84 1012.6
20260509112031 50 275 0.0 0.0 0.00 0.00 0.00 84 1012.7
20260509111820 50 275 0.0 0.0 0.00 0.00 0.00 84 1012.7
20260509111613 50 275 0.0 0.0 0.00 0.00 0.00 84 1012.7
20260509111402 50 275 0.0 0.0 0.00 0.00 0.00 84 1012.8
20260509111158 50 275 0.0 0.0 0.00 0.00 0.00 84 1012.8
20260509110949 50 275 0.0 0.0 0.00 0.00 0.00 84 1012.8
20260509110600 50 275 0.0 0.0 0.00 0.00 0.00 84 1012.8
20260509110355 51 275 0.0 0.0 0.00 0.00 0.00 84 1012.9
20260509110143 51 275 0.0 0.0 0.00 0.00 0.00 84 1012.8
20260509105935 51 275 0.0 0.0 0.00 0.00 0.00 84 1012.8
20260509105726 51 275 0.0 0.0 0.00 0.00 0.00 84 1012.8
20260509105519 51 275 0.0 0.0 0.00 0.00 0.00 84 1012.9
20260509105315 51 275 0.0 0.0 0.00 0.00 0.00 84 1012.9
20260509105108 51 275 0.0 0.0 0.00 0.00 0.00 84 1012.9
20260509104855 51 275 0.0 0.0 0.00 0.00 0.00 84 1012.8
20260509104643 51 275 0.0 0.0 0.00 0.00 0.00 84 1012.8
20260509104430 51 275 0.0 0.0 0.00 0.00 0.00 84 1012.8
20260509104221 51 275 0.0 0.0 0.00 0.00 0.00 84 1012.8
20260509104012 51 275 0.0 0.0 0.00 0.00 0.00 84 1012.8
20260509103805 51 275 0.0 0.0 0.00 0.00 0.00 84 1012.8
20260509103412 51 275 0.0 0.0 0.00 0.00 0.00 84 1012.8
20260509103159 51 275 0.0 0.0 0.00 0.00 0.00 84 1012.8
20260509102956 51 275 0.0 0.0 0.00 0.00 0.00 84 1012.8
20260509102745 51 275 0.0 0.0 0.00 0.00 0.00 84 1012.8
20260509102532 51 275 0.0 0.0 0.00 0.00 0.00 84 1012.8
20260509102325 51 275 0.0 0.0 0.00 0.00 0.00 84 1012.8
20260509102117 51 275 0.0 0.0 0.00 0.00 0.00 84 1012.8
20260509101912 51 275 0.0 0.0 0.00 0.00 0.00 83 1012.9
20260509101517 51 275 0.0 0.0 0.00 0.00 0.00 83 1013.0
20260509101311 51 275 0.0 0.0 0.00 0.00 0.00 83 1013.0
20260509101109 51 275 0.0 0.0 0.00 0.00 0.00 83 1013.0
20260509100902 51 275 0.0 0.0 0.00 0.00 0.00 83 1013.0
20260509100701 51 275 0.0 0.0 0.00 0.00 0.00 83 1013.0
20260509100305 51 275 0.0 0.0 0.00 0.00 0.00 83 1013.0
20260509100053 51 275 0.0 0.0 0.00 0.00 0.00 83 1013.0
20260509095851 51 275 0.0 0.0 0.00 0.00 0.00 83 1013.0
20260509095454 51 275 0.0 0.0 0.00 0.00 0.00 83 1013.0
20260509095249 51 275 0.0 0.0 0.00 0.00 0.00 83 1013.0
20260509095037 51 275 0.0 0.0 0.00 0.00 0.00 83 1012.9
20260509094829 51 275 0.0 0.0 0.00 0.00 0.00 83 1013.0
20260509094624 51 275 0.0 0.0 0.00 0.00 0.00 83 1013.0
20260509094417 51 275 0.0 0.0 0.00 0.00 0.00 83 1013.0
20260509094213 51 275 0.0 0.0 0.00 0.00 0.00 83 1013.0
20260509094002 51 275 0.0 0.0 0.00 0.00 0.00 83 1013.0
20260509093755 51 275 0.0 0.0 0.00 0.00 0.00 83 1013.0
20260509093548 51 275 0.0 0.0 0.00 0.00 0.00 83 1013.1
20260509093341 51 275 0.0 0.0 0.00 0.00 0.00 83 1013.0
20260509093137 51 275 0.0 0.0 0.00 0.00 0.00 83 1013.1
20260509092929 51 275 0.0 0.0 0.00 0.00 0.00 83 1013.0
20260509092542 51 275 0.0 0.0 0.00 0.00 0.00 82 1013.1
20260509092337 51 275 0.0 0.0 0.00 0.00 0.00 82 1013.1
20260509092124 52 275 0.0 0.0 0.00 0.00 0.00 82 1013.1
20260509091919 51 275 0.0 0.0 0.00 0.00 0.00 82 1013.1
20260509091532 52 275 0.0 0.0 0.00 0.00 0.00 82 1013.1
20260509091135 52 275 0.0 0.0 0.00 0.00 0.00 82 1013.0
20260509090930 52 275 0.0 0.0 0.00 0.00 0.00 82 1013.0
20260509090727 52 275 0.0 0.0 0.00 0.00 0.00 82 1013.0
20260509090525 52 275 0.0 0.0 0.00 0.00 0.00 82 1013.0
20260509090315 52 275 0.0 0.0 0.00 0.00 0.00 82 1013.0
20260509090113 52 275 0.0 0.0 0.00 0.00 0.00 82 1013.0
20260509085903 52 275 0.0 0.0 0.00 0.00 0.00 82 1013.0
20260509085657 52 275 0.0 0.0 0.00 0.00 0.00 82 1013.0
20260509085454 52 275 0.0 0.0 0.00 0.00 0.00 82 1013.0
20260509085241 52 275 0.0 0.0 0.00 0.00 0.00 82 1012.9
20260509085032 52 275 0.0 0.0 0.00 0.00 0.00 82 1013.0
20260509084823 52 275 0.0 0.0 0.00 0.00 0.00 82 1013.0
20260509084612 52 275 0.0 0.0 0.00 0.00 0.00 82 1013.0
20260509084407 52 275 0.0 0.0 0.00 0.00 0.00 81 1013.0
20260509084158 52 275 0.0 0.0 0.00 0.00 0.00 81 1013.0
20260509083955 52 275 0.0 0.0 0.00 0.00 0.00 81 1013.0
20260509083744 52 275 0.0 0.0 0.00 0.00 0.00 81 1013.0
20260509083533 52 275 0.0 0.0 0.00 0.00 0.00 81 1013.0
20260509083328 52 275 0.0 0.0 0.00 0.00 0.00 81 1013.0
20260509083124 52 275 0.0 0.0 0.00 0.00 0.00 81 1013.1
20260509082914 52 275 0.0 0.0 0.00 0.00 0.00 81 1013.1
20260509082703 52 275 0.0 0.0 0.00 0.00 0.00 81 1013.1
20260509082450 52 275 0.0 0.0 0.00 0.00 0.00 81 1013.1
20260509082248 52 275 0.0 0.0 0.00 0.00 0.00 81 1013.2
20260509082036 52 275 0.0 0.0 0.00 0.00 0.00 81 1013.1
20260509081823 52 275 0.0 0.0 0.00 0.00 0.00 81 1013.2
20260509081431 52 275 0.0 0.0 0.00 0.00 0.00 81 1013.2
20260509081039 52 275 0.0 0.0 0.00 0.00 0.00 81 1013.2
20260509080643 53 275 0.0 0.0 0.00 0.00 0.00 81 1013.2
20260509080253 53 275 0.0 0.0 0.00 0.00 0.00 81 1013.3
20260509080041 53 275 0.0 0.0 0.00 0.00 0.00 80 1013.3
20260509075839 53 275 0.0 0.0 0.00 0.00 0.00 81 1013.3
20260509075630 53 275 0.0 0.0 0.00 0.00 0.00 81 1013.3
20260509075235 53 275 0.0 0.0 0.00 0.00 0.00 80 1013.3
20260509075031 53 275 0.0 0.0 0.00 0.00 0.00 80 1013.4
20260509074634 53 275 0.0 0.0 0.00 0.00 0.00 80 1013.4
20260509074424 53 275 0.0 0.0 0.00 0.00 0.00 80 1013.4
20260509074034 53 275 0.0 0.0 0.00 0.00 0.00 80 1013.4
20260509073825 53 275 0.0 0.0 0.00 0.00 0.00 80 1013.4
20260509073620 53 275 0.0 0.0 0.00 0.00 0.00 80 1013.4
20260509073415 53 275 0.0 0.0 0.00 0.00 0.00 80 1013.4
20260509073211 53 275 0.0 0.0 0.00 0.00 0.00 79 1013.4
20260509073009 53 275 0.0 0.0 0.00 0.00 0.00 79 1013.4
20260509072757 53 275 0.0 0.0 0.00 0.00 0.00 80 1013.4
20260509072404 53 275 0.0 0.0 0.00 0.00 0.00 79 1013.4
20260509072201 53 275 0.0 0.0 0.00 0.00 0.00 79 1013.3
20260509071956 53 275 0.0 0.0 0.00 0.00 0.00 79 1013.3
20260509071749 53 275 0.0 0.0 0.00 0.00 0.00 79 1013.4
20260509071358 53 275 0.0 0.0 0.00 0.00 0.00 79 1013.2
20260509071153 53 275 0.0 0.0 0.00 0.00 0.00 79 1013.3
20260509070942 53 275 0.0 0.0 0.00 0.00 0.00 79 1013.3
20260509070730 53 275 0.0 0.0 0.00 0.00 0.00 79 1013.3
20260509070526 54 275 0.0 0.0 0.00 0.00 0.00 79 1013.3
20260509070322 54 275 0.0 0.0 0.00 0.00 0.00 79 1013.3
20260509070116 54 275 0.0 0.0 0.00 0.00 0.00 79 1013.3
20260509065911 54 275 0.0 0.0 0.00 0.00 0.00 79 1013.4
20260509065336 54 275 0.0 0.0 0.00 0.00 0.00 79 1013.5
20260509065129 54 275 0.0 0.0 0.00 0.00 0.00 79 1013.5
20260509064926 54 275 0.0 0.0 0.00 0.00 0.00 79 1013.4
20260509064716 54 275 0.0 0.0 0.00 0.00 0.00 79 1013.5
20260509064507 54 275 0.0 0.0 0.00 0.00 0.00 78 1013.4
20260509064301 54 275 0.0 0.0 0.00 0.00 0.00 78 1013.5
20260509063905 54 275 0.0 0.0 0.00 0.00 0.00 78 1013.5
20260509063655 54 275 0.0 0.0 0.00 0.00 0.00 78 1013.4
20260509063442 54 275 0.0 0.0 0.00 0.00 0.00 78 1013.4
20260509063234 54 275 0.0 0.0 0.00 0.00 0.00 78 1013.5
20260509063024 54 275 0.0 0.0 0.00 0.00 0.00 78 1013.4
20260509062815 54 275 0.0 0.0 0.00 0.00 0.00 78 1013.4
20260509062613 54 275 0.0 0.0 0.00 0.00 0.00 77 1013.4
20260509062406 55 275 0.0 0.0 0.00 0.00 0.00 77 1013.4
20260509062202 55 275 0.0 0.0 0.00 0.00 0.00 77 1013.4
20260509062000 55 275 0.0 0.0 0.00 0.00 0.00 77 1013.5
20260509061602 55 275 0.0 0.0 0.00 0.00 0.00 77 1013.4
20260509061211 55 275 0.0 0.0 0.00 0.00 0.00 77 1013.4
20260509061007 55 275 0.0 0.0 0.00 0.00 0.00 77 1013.4
20260509060804 55 275 0.0 0.0 0.00 0.00 0.00 77 1013.4
20260509060558 55 275 0.0 0.0 0.00 0.00 0.00 77 1013.3
20260509060345 55 275 0.0 0.0 0.00 0.00 0.00 77 1013.4
20260509060144 55 275 0.0 0.0 0.00 0.00 0.00 76 1013.4
20260509055933 55 275 0.0 0.0 0.00 0.00 0.00 76 1013.4
20260509055723 55 275 0.0 0.0 0.00 0.00 0.00 76 1013.4
20260509055519 55 275 0.0 0.0 0.00 0.00 0.00 76 1013.4
20260509055125 55 275 0.0 0.0 0.00 0.00 0.00 76 1013.4
20260509054921 55 275 0.0 0.0 0.00 0.00 0.00 76 1013.4
20260509054711 56 275 0.0 0.0 0.00 0.00 0.00 76 1013.3
20260509054508 56 275 0.0 0.0 0.00 0.00 0.00 75 1013.3
20260509054255 56 275 0.0 0.0 0.00 0.00 0.00 75 1013.3
20260509054043 56 275 0.0 0.0 0.00 0.00 0.00 75 1013.3
20260509053647 56 275 0.0 0.0 0.00 0.00 0.00 75 1013.4
20260509053444 56 275 0.0 0.0 0.00 0.00 0.00 75 1013.4
20260509053237 56 275 0.0 0.0 0.00 0.00 0.00 75 1013.4
20260509053026 56 275 0.0 0.0 0.00 0.00 0.00 75 1013.4
20260509052824 56 275 0.0 0.0 0.00 0.00 0.00 74 1013.4
20260509052432 56 275 0.0 0.0 0.00 0.00 0.00 74 1013.4
20260509052225 56 275 0.0 0.0 0.00 0.00 0.00 74 1013.4
20260509051837 57 275 0.0 0.0 0.00 0.00 0.00 74 1013.3
20260509051446 57 275 0.0 0.0 0.00 0.00 0.00 74 1013.3
20260509051237 57 275 0.0 0.0 0.00 0.00 0.00 73 1013.3
20260509051025 57 275 0.0 0.0 0.00 0.00 0.00 73 1013.3
20260509050307 57 275 0.0 0.0 0.00 0.00 0.00 73 1013.2
20260509050054 57 275 0.0 0.0 0.00 0.00 0.00 72 1013.2
20260509045841 57 275 0.0 0.0 0.00 0.00 0.00 72 1013.2
20260509045452 58 275 0.0 0.0 0.00 0.00 0.00 72 1013.1
20260509044919 58 275 0.0 0.0 0.00 0.00 0.00 71 1013.0
20260509044713 58 275 0.0 0.0 0.00 0.00 0.00 71 1013.0
20260509044506 58 275 0.0 0.0 0.00 0.00 0.00 71 1013.0
20260509044255 58 275 0.0 0.0 0.00 0.00 0.00 71 1013.0
20260509044051 58 275 0.0 0.0 0.00 0.00 0.00 70 1013.0
20260509043843 58 275 0.0 0.0 0.00 0.00 0.00 70 1013.0
20260509043635 58 275 0.0 0.0 0.00 0.00 0.00 70 1013.0
20260509043422 59 275 0.0 0.0 0.00 0.00 0.00 70 1013.0
20260509043032 59 275 0.0 0.0 0.00 0.00 0.00 69 1012.9
20260509042829 59 275 0.0 0.0 0.00 0.00 0.00 69 1012.9
20260509042626 59 275 0.0 0.0 0.00 0.00 0.00 69 1012.9
20260509042238 59 275 0.0 0.0 0.00 0.00 0.00 69 1012.9
20260509042026 59 275 0.0 0.0 0.00 0.00 0.00 69 1012.8
20260509041824 60 275 0.0 0.0 0.00 0.00 0.00 68 1012.8
20260509041618 60 275 0.0 0.0 0.00 0.00 0.00 68 1012.8
20260509041416 60 275 0.0 0.0 0.00 0.00 0.00 67 1012.8
20260509041207 60 275 0.0 0.0 0.00 0.00 0.00 67 1012.8
20260509040959 60 275 0.0 0.0 0.00 0.00 0.00 66 1012.8
20260509040755 60 275 0.0 0.0 0.00 0.00 0.00 66 1012.8
20260509040547 61 275 0.0 0.0 0.00 0.00 0.00 66 1012.8
20260509040343 61 275 0.0 0.0 0.00 0.00 0.00 66 1012.8
20260509040139 61 275 0.0 0.0 0.00 0.00 0.00 65 1012.8
20260509035934 61 275 0.0 0.0 0.00 0.00 0.00 65 1012.8
20260509035543 61 275 0.0 0.0 0.00 0.00 0.00 64 1012.7
20260509035341 62 275 0.0 0.0 0.00 0.00 0.00 64 1012.7
20260509035137 62 275 0.0 0.0 0.00 0.00 0.00 64 1012.7
20260509034744 62 275 0.0 0.0 0.00 0.00 0.00 64 1012.7
20260509034540 62 275 0.0 0.0 0.00 0.00 0.00 63 1012.7
20260509034332 62 275 0.0 0.0 0.00 0.00 0.00 63 1012.6
20260509034123 63 275 0.0 0.0 0.00 0.00 0.00 62 1012.6
20260509033911 63 275 0.0 0.0 0.00 0.00 0.00 63 1012.5
20260509033702 63 275 0.0 0.0 0.00 0.00 0.00 62 1012.6
20260509032939 64 275 0.0 0.0 0.00 0.00 0.00 62 1012.5
20260509032543 64 275 0.0 0.0 0.00 0.00 0.00 61 1012.6
20260509032338 64 275 0.0 0.0 0.00 0.00 0.00 61 1012.6
20260509032125 65 275 0.0 0.0 0.00 0.00 0.00 61 1012.5
20260509031919 65 275 0.0 0.0 0.00 0.00 0.00 61 1012.6
20260509031714 65 275 0.0 0.0 0.00 0.00 0.00 60 1012.6
20260509031503 65 275 0.0 0.0 0.00 0.00 0.00 60 1012.6
20260509031301 66 275 0.0 0.0 0.00 0.00 0.00 60 1012.6
20260509031054 66 275 0.0 0.0 0.00 0.00 0.00 60 1012.5
20260509030842 66 275 0.0 0.0 0.00 0.00 0.00 59 1012.4
20260509030636 66 275 0.0 0.0 0.00 0.00 0.00 59 1012.4
20260509030428 66 275 0.0 0.0 0.00 0.00 0.00 59 1012.4
20260509025848 67 275 0.0 0.0 0.00 0.00 0.00 58 1012.3
20260509025639 67 275 0.0 0.0 0.00 0.00 0.00 58 1012.4
20260509025427 67 275 0.0 0.0 0.00 0.00 0.00 58 1012.4
20260509025217 67 275 0.0 0.0 0.00 0.00 0.00 58 1012.3
20260509025014 68 275 0.0 0.0 0.00 0.00 0.00 58 1012.4
20260509024811 68 275 0.0 0.0 0.00 0.00 0.00 57 1012.3
20260509024559 68 275 0.0 0.0 0.00 0.00 0.00 57 1012.3
20260509024354 68 275 0.0 0.0 0.00 0.00 0.00 56 1012.2
20260509024141 69 275 0.0 0.0 0.00 0.00 0.00 56 1012.3
20260509023929 69 275 0.0 0.0 0.00 0.00 0.00 56 1012.3
20260509023723 69 275 0.0 0.0 0.00 0.00 0.00 56 1012.2
20260509023515 69 275 0.0 0.0 0.00 0.00 0.00 55 1012.3
20260509023313 69 275 0.0 0.0 0.00 0.00 0.00 55 1012.2
20260509023103 70 275 0.0 0.0 0.00 0.00 0.00 55 1012.2
20260509022852 70 275 0.0 0.0 0.00 0.00 0.00 55 1012.1
20260509022504 70 275 0.0 0.0 0.00 0.00 0.00 53 1012.1
20260509022113 71 275 0.0 0.0 0.00 0.00 0.00 52 1012.1
20260509021719 72 275 0.0 0.0 0.00 0.00 0.00 51 1012.1
20260509021511 72 275 0.0 0.0 0.00 0.00 0.00 52 1012.2
20260509021301 72 275 0.0 0.0 0.00 0.00 0.00 51 1012.1
20260509021051 72 275 0.0 0.0 0.00 0.00 0.00 51 1012.1
20260509020847 73 275 0.0 0.0 0.00 0.00 0.00 50 1012.1
20260509020643 73 275 0.0 1.0 0.00 0.00 0.00 50 1012.1
20260509020433 73 275 0.0 0.0 0.00 0.00 0.00 49 1012.1
20260509020044 74 275 0.0 0.0 0.00 0.00 0.00 48 1012.1
20260509015836 74 275 0.0 0.0 0.00 0.00 0.00 47 1012.1
20260509015629 74 275 0.0 0.0 0.00 0.00 0.00 47 1012.0
20260509015420 74 275 0.0 0.0 0.00 0.00 0.00 45 1012.0
20260509015216 75 275 0.0 0.0 0.00 0.00 0.00 45 1012.1
20260509014819 75 274 0.0 2.0 0.00 0.00 0.00 42 1012.1
20260509014613 75 274 0.0 2.0 0.00 0.00 0.00 44 1012.1
20260509014220 75 274 0.0 0.0 0.00 0.00 0.00 45 1012.2
20260509014015 76 274 0.0 0.0 0.00 0.00 0.00 42 1012.2
20260509013809 76 274 0.0 4.0 0.00 0.00 0.00 40 1012.1
20260509013557 76 274 0.0 4.0 0.00 0.00 0.00 40 1012.2
20260509013344 76 274 0.0 3.0 0.00 0.00 0.00 40 1012.2
20260509013131 76 274 0.0 3.0 0.00 0.00 0.00 40 1012.1
20260509012924 76 273 0.0 3.0 0.00 0.00 0.00 41 1012.2
20260509012534 77 304 0.0 0.0 0.00 0.00 0.00 43 1012.1
20260509012329 77 304 0.0 6.0 0.00 0.00 0.00 41 1012.1
20260509012120 77 304 0.0 6.0 0.00 0.00 0.00 39 1012.1
20260509011725 78 207 0.0 4.0 0.00 0.00 0.00 39 1012.1
20260509011332 78 291 0.0 4.0 0.00 0.00 0.00 39 1012.1
20260509010938 78 200 0.0 4.0 0.00 0.00 0.00 39 1012.1
20260509010730 78 263 0.0 0.0 0.00 0.00 0.00 40 1012.1
20260509010526 78 263 1.0 5.0 0.00 0.00 0.00 39 1012.1
20260509010319 79 263 1.0 5.0 0.00 0.00 0.00 40 1012.1
20260509005922 79 197 0.0 4.0 0.00 0.00 0.00 40 1012.1
20260509005719 79 220 0.0 4.0 0.00 0.00 0.00 40 1012.1
20260509005329 78 219 0.0 4.0 0.00 0.00 0.00 41 1012.2
20260509005118 78 218 0.0 4.0 0.00 0.00 0.00 41 1012.2
20260509004913 78 217 1.0 5.0 0.00 0.00 0.00 40 1012.3
20260509004525 78 213 1.0 5.0 0.00 0.00 0.00 40 1012.4
20260509004322 78 169 1.0 5.0 0.00 0.00 0.00 40 1012.3
20260509004114 78 261 1.0 5.0 0.00 0.00 0.00 40 1012.4
20260509003909 78 228 1.0 5.0 0.00 0.00 0.00 41 1012.3
20260509003702 78 179 1.0 5.0 0.00 0.00 0.00 40 1012.3
20260509003452 78 207 0.0 5.0 0.00 0.00 0.00 39 1012.3
20260509003240 79 231 0.0 5.0 0.00 0.00 0.00 39 1012.4
20260509003038 79 253 0.0 5.0 0.00 0.00 0.00 40 1012.3
20260509002829 79 255 1.0 6.0 0.00 0.00 0.00 41 1012.3
20260509002619 79 253 1.0 6.0 0.00 0.00 0.00 41 1012.3
20260509002413 79 255 1.0 6.0 0.00 0.00 0.00 40 1012.3
20260509002026 79 258 1.0 6.0 0.00 0.00 0.00 41 1012.4
20260509001640 79 221 1.0 6.0 0.00 0.00 0.00 41 1012.3
20260509001427 79 277 1.0 6.0 0.00 0.00 0.00 41 1012.4
20260509001218 79 298 1.0 6.0 0.00 0.00 0.00 39 1012.4
20260509001011 79 289 1.0 6.0 0.00 0.00 0.00 41 1012.4
20260509000800 79 314 0.0 6.0 0.00 0.00 0.00 40 1012.4
20260509000556 79 242 0.0 6.0 0.00 0.00 0.00 41 1012.4
20260509000355 79 240 1.0 6.0 0.00 0.00 0.00 41 1012.5
20260509000143 79 284 1.0 6.0 0.00 0.00 0.00 40 1012.4
20260508235941 79 280 1.0 6.0 0.00 0.00 0.00 41 1012.4
20260508235729 79 305 1.0 6.0 0.00 0.00 0.00 41 1012.4
20260508235517 79 202 1.0 6.0 0.00 0.00 0.00 40 1012.4
20260508235307 79 182 1.0 6.0 0.00 0.00 0.00 41 1012.4
20260508235104 79 150 1.0 6.0 0.00 0.00 0.00 42 1012.4
20260508234859 79 151 1.0 6.0 0.00 0.00 0.00 40 1012.5
20260508234647 79 245 1.0 7.0 0.00 0.00 0.00 41 1012.5
20260508234438 79 244 1.0 7.0 0.00 0.00 0.00 41 1012.6
20260508234230 79 232 0.0 7.0 0.00 0.00 0.00 43 1012.5
20260508234020 79 325 1.0 7.0 0.00 0.00 0.00 41 1012.6
20260508233632 79 238 1.0 7.0 0.00 0.00 0.00 41 1012.7
20260508233238 79 166 1.0 7.0 0.00 0.00 0.00 42 1012.6
20260508233030 79 288 0.0 7.0 0.00 0.00 0.00 41 1012.7
20260508232828 79 350 0.0 7.0 0.00 0.00 0.00 41 1012.6
20260508232621 79 243 0.0 6.0 0.00 0.00 0.00 44 1012.7
20260508232414 79 243 1.0 6.0 0.00 0.00 0.00 42 1012.6
20260508232210 79 209 1.0 6.0 0.00 0.00 0.00 45 1012.6
20260508232005 79 209 1.0 6.0 0.00 0.00 0.00 44 1012.7
20260508231759 79 209 1.0 6.0 0.00 0.00 0.00 44 1012.7
20260508231552 79 156 1.0 6.0 0.00 0.00 0.00 42 1012.7
20260508231349 80 243 0.0 5.0 0.00 0.00 0.00 44 1012.7
20260508231142 80 243 0.0 6.0 0.00 0.00 0.00 41 1012.7
20260508230934 79 209 0.0 6.0 0.00 0.00 0.00 44 1012.8
20260508230730 79 209 0.0 6.0 0.00 0.00 0.00 45 1012.8
20260508230337 79 184 1.0 6.0 0.00 0.00 0.00 43 1012.9
20260508230133 79 272 1.0 6.0 0.00 0.00 0.00 42 1012.8
20260508225746 79 155 1.0 6.0 0.00 0.00 0.00 42 1012.9
20260508225540 80 266 0.0 6.0 0.00 0.00 0.00 43 1012.9
20260508225337 80 275 0.0 6.0 0.00 0.00 0.00 43 1013.0
20260508224949 80 199 0.0 5.0 0.00 0.00 0.00 44 1013.0
20260508224737 80 286 0.0 5.0 0.00 0.00 0.00 45 1013.1
20260508224534 79 300 0.0 5.0 0.00 0.00 0.00 44 1013.0
20260508224324 79 299 1.0 5.0 0.00 0.00 0.00 42 1013.1
20260508224121 80 237 1.0 5.0 0.00 0.00 0.00 41 1013.2
20260508223913 80 206 1.0 6.0 0.00 0.00 0.00 43 1013.2
20260508223520 79 279 1.0 6.0 0.00 0.00 0.00 44 1013.2
20260508223308 79 279 1.0 6.0 0.00 0.00 0.00 42 1013.3
20260508223103 80 286 0.0 6.0 0.00 0.00 0.00 41 1013.3
20260508222857 80 239 0.0 7.0 0.00 0.00 0.00 43 1013.2
20260508222650 80 205 0.0 7.0 0.00 0.00 0.00 44 1013.3
20260508222255 80 308 0.0 7.0 0.00 0.00 0.00 43 1013.3
20260508222053 80 280 0.0 7.0 0.00 0.00 0.00 43 1013.3
20260508221705 80 278 0.0 6.0 0.00 0.00 0.00 44 1013.3
20260508221452 80 209 1.0 6.0 0.00 0.00 0.00 43 1013.3
20260508221247 80 209 0.0 6.0 0.00 0.00 0.00 44 1013.4
20260508221037 80 296 0.0 6.0 0.00 0.00 0.00 45 1013.4
20260508220827 79 194 1.0 4.0 0.00 0.00 0.00 46 1013.4
20260508220617 79 192 1.0 4.0 0.00 0.00 0.00 44 1013.4
20260508220413 79 200 1.0 3.0 0.00 0.00 0.00 45 1013.4
20260508220200 79 189 1.0 7.0 0.00 0.00 0.00 43 1013.5
20260508215805 79 228 1.0 7.0 0.00 0.00 0.00 44 1013.4
20260508215602 79 329 0.0 7.0 0.00 0.00 0.00 45 1013.5
20260508215400 79 281 1.0 5.0 0.00 0.00 0.00 43 1013.5
20260508215154 79 281 0.0 5.0 0.00 0.00 0.00 45 1013.6
20260508214943 79 281 0.0 7.0 0.00 0.00 0.00 45 1013.7
20260508214731 79 244 1.0 7.0 0.00 0.00 0.00 44 1013.7
20260508214337 79 248 2.0 7.0 0.00 0.00 0.00 44 1013.7
20260508214132 79 250 2.0 7.0 0.00 0.00 0.00 47 1013.7
20260508213550 79 248 1.0 7.0 0.00 0.00 0.00 45 1013.7
20260508213343 79 284 0.0 5.0 0.00 0.00 0.00 46 1013.7
20260508213141 78 210 0.0 5.0 0.00 0.00 0.00 46 1013.7
20260508212930 78 248 0.0 5.0 0.00 0.00 0.00 48 1013.7
20260508212722 78 248 1.0 5.0 0.00 0.00 0.00 47 1013.8
20260508212519 78 248 1.0 5.0 0.00 0.00 0.00 47 1013.7
20260508212124 78 236 0.0 9.0 0.00 0.00 0.00 48 1013.8
20260508211916 78 282 1.0 9.0 0.00 0.00 0.00 47 1013.8
20260508211705 78 311 1.0 9.0 0.00 0.00 0.00 47 1013.9
20260508211128 78 331 2.0 9.0 0.00 0.00 0.00 48 1013.9
20260508210916 78 267 2.0 9.0 0.00 0.00 0.00 49 1013.8
20260508210706 78 296 2.0 9.0 0.00 0.00 0.00 48 1013.9
20260508210459 79 290 1.0 9.0 0.00 0.00 0.00 50 1013.8
20260508210251 79 315 1.0 9.0 0.00 0.00 0.00 48 1013.9
20260508210049 79 284 1.0 6.0 0.00 0.00 0.00 48 1013.9
20260508205837 79 320 1.0 6.0 0.00 0.00 0.00 48 1013.9
20260508205631 79 242 1.0 6.0 0.00 0.00 0.00 49 1013.9
20260508205429 79 279 1.0 6.0 0.00 0.00 0.00 47 1013.8
20260508205219 79 290 1.0 6.0 0.00 0.00 0.00 47 1013.9
20260508205014 79 30 1.0 6.0 0.00 0.00 0.00 48 1013.9
20260508204812 79 229 1.0 6.0 0.00 0.00 0.00 48 1013.8
20260508204609 79 232 0.0 6.0 0.00 0.00 0.00 50 1013.8
20260508204406 79 273 0.0 6.0 0.00 0.00 0.00 48 1013.9
20260508204159 79 253 0.0 5.0 0.00 0.00 0.00 47 1013.9
20260508203810 78 231 1.0 5.0 0.00 0.00 0.00 48 1014.0
20260508203606 78 94 1.0 0.0 0.00 0.00 0.00 49 1014.0
20260508203404 78 94 2.0 7.0 0.00 0.00 0.00 49 1013.9
20260508203200 78 212 2.0 5.0 0.00 0.00 0.00 47 1014.1
20260508202957 78 214 2.0 5.0 0.00 0.00 0.00 46 1014.1
20260508202750 78 281 1.0 5.0 0.00 0.00 0.00 46 1014.1
20260508202354 78 196 1.0 5.0 0.00 0.00 0.00 47 1014.1
20260508202145 78 190 1.0 3.0 0.00 0.00 0.00 47 1014.0
20260508201748 78 184 1.0 7.0 0.00 0.00 0.00 48 1014.1
20260508201400 78 153 1.0 7.0 0.00 0.00 0.00 47 1014.1
20260508201148 79 279 1.0 7.0 0.00 0.00 0.00 46 1014.2
20260508200946 78 230 1.0 6.0 0.00 0.00 0.00 46 1014.2
20260508200742 78 255 0.0 7.0 0.00 0.00 0.00 47 1014.2
20260508200531 78 251 1.0 7.0 0.00 0.00 0.00 47 1014.2
20260508200322 78 270 1.0 7.0 0.00 0.00 0.00 47 1014.1
20260508200116 78 258 1.0 7.0 0.00 0.00 0.00 47 1014.2
20260508195913 78 270 1.0 7.0 0.00 0.00 0.00 47 1014.2
20260508195703 78 270 1.0 6.0 0.00 0.00 0.00 46 1014.2
20260508195456 78 280 1.0 6.0 0.00 0.00 0.00 48 1014.3
20260508195254 79 303 1.0 6.0 0.00 0.00 0.00 45 1014.4
20260508195045 78 252 1.0 6.0 0.00 0.00 0.00 48 1014.2
20260508194843 78 292 0.0 6.0 0.00 0.00 0.00 48 1014.3
20260508194639 77 282 0.0 4.0 0.00 0.00 0.00 48 1014.3
20260508194433 77 281 0.0 4.0 0.00 0.00 0.00 48 1014.4
20260508194231 77 182 1.0 0.0 0.00 0.00 0.00 51 1014.4
20260508194023 77 182 1.0 0.0 0.00 0.00 0.00 49 1014.4
20260508193820 78 182 1.0 6.0 0.00 0.00 0.00 48 1014.5
20260508193609 77 201 1.0 6.0 0.00 0.00 0.00 50 1014.4
20260508193406 77 305 0.0 6.0 0.00 0.00 0.00 47 1014.5
20260508193159 77 312 0.0 0.0 0.00 0.00 0.00 48 1014.5
20260508192804 77 318 0.0 6.0 0.00 0.00 0.00 47 1014.6
20260508192418 77 188 0.0 5.0 0.00 0.00 0.00 45 1014.6
20260508192216 77 188 1.0 5.0 0.00 0.00 0.00 43 1014.6
20260508192004 77 264 1.0 3.0 0.00 0.00 0.00 45 1014.5
20260508191753 77 262 1.0 0.0 0.00 0.00 0.00 45 1014.6
20260508191551 77 262 1.0 5.0 0.00 0.00 0.00 43 1014.6
20260508191346 77 202 0.0 5.0 0.00 0.00 0.00 43 1014.7
20260508191137 77 227 0.0 3.0 0.00 0.00 0.00 44 1014.7
20260508190926 77 289 1.0 3.0 0.00 0.00 0.00 45 1014.7
20260508190722 76 223 1.0 0.0 0.00 0.00 0.00 48 1014.7
20260508190516 76 223 1.0 7.0 0.00 0.00 0.00 49 1014.7
20260508190309 76 223 1.0 7.0 0.00 0.00 0.00 45 1014.7
20260508185707 75 163 0.0 0.0 0.00 0.00 0.00 44 1014.7
20260508185501 75 163 1.0 5.0 0.00 0.00 0.00 43 1014.8
20260508185258 75 161 0.0 5.0 0.00 0.00 0.00 45 1014.9
20260508185052 76 161 0.0 5.0 0.00 0.00 0.00 45 1014.9
20260508184840 76 178 0.0 3.0 0.00 0.00 0.00 45 1014.9
20260508184630 76 174 0.0 3.0 0.00 0.00 0.00 43 1015.0